Torna al catalogo

ONEWEB-0094

AttivoComunicazioniPO
NORAD 45450·PAYLOAD·🇬🇧 United Kingdom

Lanciato Mar 21, 2020 da Baikonur Cosmodrome

Loading…

Prossimi Passaggi (prossime 24 ore)

TLE

AggiornatoSource: CelesTrak SupGP

Epoca: Sep 14, 2026, 12:29 UTC

1 45450C 20020AC  26257.52064072 -.00000542  00000+0 -13975-2 0  2576
2 45450  87.9208 348.1159 0001984  96.4034 343.2754 13.17646976    12

Traccia ONEWEB-0094 in tempo reale con AllMySat

Download on the App Store